GW3397 Weather Reports


Display with metric or nautical units.
time (UTC)temp
F
wind
direction
speed
MPH
gust
MPH
rain 1hr
in
rain 24hr
in
rain mn
in
humidity
%
barometer
mb
20260507120218 42 271 7.0 9.0 0.00 0.01 0.01 75 1014.8
20260507115713 42 287 6.0 8.0 0.00 0.01 0.01 74 1014.9
20260507115209 42 272 8.0 11.0 0.00 0.01 0.01 76 1014.8
20260507114706 41 299 10.0 11.0 0.00 0.01 0.01 76 1014.8
20260507114203 41 282 8.0 13.0 0.00 0.01 0.01 76 1014.9
20260507113700 41 317 8.0 11.0 0.00 0.01 0.01 76 1014.7
20260507113157 41 321 7.0 10.0 0.00 0.01 0.01 77 1014.7
20260507112655 41 302 9.0 15.0 0.00 0.01 0.01 76 1014.8
20260507112151 41 304 7.0 8.0 0.00 0.01 0.01 78 1014.7
20260507111649 41 305 8.0 8.0 0.00 0.01 0.01 78 1014.9
20260507111145 40 339 7.0 8.0 0.00 0.01 0.01 79 1015.0
20260507110641 40 300 7.0 11.0 0.00 0.01 0.01 79 1014.9
20260507110138 40 304 8.0 9.0 0.00 0.01 0.01 80 1014.5
20260507105635 40 287 6.0 9.0 0.00 0.01 0.01 80 1014.6
20260507105131 39 279 7.0 9.0 0.00 0.01 0.01 81 1014.6
20260507104628 39 284 4.0 10.0 0.00 0.01 0.01 82 1014.3
20260507104124 39 314 5.0 8.0 0.00 0.01 0.01 81 1014.3
20260507103620 39 323 5.0 7.0 0.00 0.01 0.01 82 1014.3
20260507103117 39 288 5.0 7.0 0.00 0.01 0.01 82 1014.3
20260507102614 39 289 6.0 9.0 0.00 0.01 0.01 82 1014.3
20260507102110 38 291 6.0 9.0 0.00 0.01 0.01 83 1014.5
20260507101606 38 318 5.0 6.0 0.00 0.01 0.01 84 1014.4
20260507101102 38 279 6.0 8.0 0.00 0.01 0.01 84 1014.2
20260507100559 38 313 7.0 10.0 0.00 0.01 0.01 85 1014.0
20260507100058 38 309 6.0 8.0 0.00 0.01 0.01 86 1014.2
20260507095555 38 305 4.0 9.0 0.00 0.01 0.01 86 1014.3
20260507095047 38 281 5.0 10.0 0.00 0.01 0.01 86 1014.1
20260507094543 39 302 6.0 9.0 0.00 0.01 0.01 86 1014.2
20260507094040 39 306 5.0 9.0 0.00 0.01 0.01 86 1014.3
20260507093537 39 325 7.0 10.0 0.00 0.01 0.01 88 1014.0
20260507093036 39 307 5.0 7.0 0.00 0.01 0.01 89 1014.3
20260507092532 39 234 5.0 7.0 0.00 0.01 0.01 90 1014.3
20260507092029 39 311 2.0 10.0 0.00 0.01 0.01 90 1014.5
20260507091526 39 333 3.0 7.0 0.00 0.01 0.01 90 1014.2
20260507091022 39 295 5.0 7.0 0.00 0.01 0.01 90 1014.2
20260507090517 39 306 5.0 7.0 0.00 0.01 0.01 89 1014.1
20260507090015 39 327 4.0 6.0 0.00 0.01 0.01 89 1014.2
20260507085512 40 277 5.0 11.0 0.00 0.01 0.01 90 1014.1
20260507085008 40 337 4.0 8.0 0.00 0.01 0.01 90 1013.9
20260507084505 40 302 8.0 11.0 0.00 0.01 0.01 91 1014.0
20260507084002 41 296 5.0 6.0 0.00 0.01 0.01 90 1014.0
20260507083458 41 253 5.0 8.0 0.00 0.01 0.01 90 1014.0
20260507082955 41 309 8.0 10.0 0.00 0.01 0.01 90 1014.0
20260507082451 41 298 7.0 10.0 0.00 0.01 0.01 91 1014.0
20260507081947 41 318 6.0 11.0 0.00 0.01 0.01 91 1014.2
20260507081444 42 275 9.0 10.0 0.00 0.01 0.01 91 1014.3
20260507080941 42 297 5.0 11.0 0.00 0.01 0.01 91 1014.3
20260507080437 42 297 3.0 8.0 0.00 0.01 0.01 91 1014.2
20260507075932 42 309 5.0 7.0 0.00 0.01 0.01 91 1014.0
20260507075428 42 304 5.0 9.0 0.00 0.01 0.01 91 1014.1
20260507074920 42 313 7.0 11.0 0.00 0.01 0.01 91 1014.0
20260507074416 42 322 8.0 8.0 0.00 0.01 0.01 91 1014.0
20260507073909 42 292 6.0 7.0 0.00 0.01 0.01 91 1014.0
20260507073405 42 304 5.0 6.0 0.00 0.01 0.01 91 1014.1
20260507072902 42 304 8.0 13.0 0.00 0.01 0.01 91 1014.2
20260507072359 42 310 7.0 7.0 0.00 0.01 0.01 91 1014.3
20260507071856 42 303 6.0 9.0 0.00 0.01 0.01 91 1014.3
20260507071353 42 318 6.0 7.0 0.00 0.01 0.01 91 1014.1
20260507070849 42 286 3.0 8.0 0.00 0.01 0.01 91 1014.0
20260507070347 42 304 6.0 9.0 0.00 0.01 0.01 92 1014.1
20260507065844 42 268 8.0 9.0 0.00 0.01 0.01 92 1014.0
20260507065340 43 316 5.0 6.0 0.00 0.01 0.01 93 1014.1
20260507064838 43 309 13.0 20.0 0.00 0.01 0.01 93 1014.1
20260507064336 43 325 4.0 7.0 0.00 0.01 0.01 93 1014.2
20260507063833 43 307 8.0 10.0 0.00 0.01 0.01 93 1014.1
20260507063330 43 287 8.0 9.0 0.00 0.01 0.01 94 1014.1
20260507062827 43 310 7.0 9.0 0.00 0.01 0.01 94 1013.7
20260507062324 43 306 8.0 11.0 0.00 0.01 0.01 94 1013.7
20260507061822 43 276 7.0 13.0 0.00 0.01 0.01 94 1013.7
20260507061320 44 320 6.0 10.0 0.00 0.01 0.01 94 1013.9
20260507060818 44 324 10.0 13.0 0.00 0.01 0.01 93 1013.9
20260507060314 44 312 11.0 14.0 0.00 0.01 0.01 93 1014.0
20260507055811 44 310 6.0 8.0 0.00 0.01 0.01 93 1013.9
20260507055306 44 302 4.0 8.0 0.00 0.01 0.01 93 1014.0
20260507054803 44 292 4.0 7.0 0.00 0.01 0.01 93 1014.0
20260507054259 44 243 6.0 7.0 0.00 0.01 0.01 93 1013.6
20260507053756 44 281 7.0 9.0 0.00 0.01 0.01 93 1014.0
20260507053254 44 285 6.0 8.0 0.00 0.01 0.01 93 1013.9
20260507052753 44 273 7.0 8.0 0.00 0.01 0.01 93 1013.7
20260507052249 44 302 5.0 6.0 0.00 0.01 0.01 93 1014.0
20260507051747 44 325 4.0 5.0 0.00 0.01 0.01 93 1014.0
20260507051244 44 286 4.0 5.0 0.00 0.01 0.01 93 1014.1
20260507050741 44 288 3.0 3.0 0.00 0.01 0.01 93 1014.2
20260507050237 44 292 3.0 3.0 0.00 0.01 0.01 94 1014.0
20260507045734 44 312 6.0 8.0 0.00 0.01 0.01 94 1013.9
20260507045230 44 319 0.0 1.0 0.00 0.01 0.01 94 1013.5
20260507044728 44 255 3.0 3.0 0.00 0.01 0.01 94 1013.5
20260507044224 44 305 2.0 3.0 0.00 0.01 0.01 94 1013.7
20260507043720 44 327 1.0 2.0 0.00 0.01 0.01 94 1013.9
20260507043217 44 313 2.0 2.0 0.00 0.01 0.01 94 1013.7
20260507042714 44 309 2.0 3.0 0.00 0.01 0.01 94 1013.7
20260507042208 44 312 3.0 5.0 0.00 0.01 0.01 94 1013.9
20260507041706 44 299 1.0 1.0 0.07 0.01 0.01 94 1013.7
20260507041202 44 342 1.0 3.0 0.07 0.01 0.01 94 1013.6
20260507040659 44 305 2.0 5.0 0.00 0.00 0.00 94 1013.9
20260507040155 44 329 1.0 2.0 0.00 0.00 0.00 94 1013.9
20260507035651 44 326 2.0 2.0 0.00 0.34 0.34 94 1014.3
20260507035147 44 308 3.0 3.0 0.00 0.34 0.34 94 1014.1
20260507034644 44 319 1.0 2.0 0.00 0.34 0.34 94 1013.9
20260507034142 44 322 2.0 2.0 0.00 0.34 0.34 94 1013.9
20260507033640 44 323 1.0 1.0 0.00 0.34 0.34 94 1013.6
20260507033137 44 311 2.0 2.0 0.00 0.34 0.34 94 1013.9
20260507032635 44 322 1.0 2.0 0.00 0.34 0.34 94 1013.7
20260507032130 44 285 1.0 2.0 0.00 0.34 0.34 94 1013.9
20260507031627 44 334 0.0 1.0 0.00 0.34 0.34 94 1014.0
20260507031124 45 310 2.0 2.0 0.00 0.34 0.34 94 1014.0
20260507030620 45 311 3.0 3.0 0.00 0.34 0.34 94 1013.9
20260507030118 45 319 3.0 5.0 0.00 0.34 0.34 94 1014.0
20260507025615 45 327 3.0 5.0 0.00 0.34 0.34 94 1014.0
20260507025112 45 310 4.0 5.0 0.00 0.34 0.34 94 1013.6
20260507024610 45 295 5.0 6.0 0.00 0.34 0.34 94 1014.3
20260507024107 45 306 1.0 2.0 0.00 0.34 0.34 94 1013.6
20260507023602 45 305 3.0 3.0 0.00 0.34 0.34 94 1013.6
20260507023100 45 303 6.0 7.0 0.00 0.34 0.34 94 1014.0
20260507022557 45 319 4.0 6.0 0.00 0.34 0.34 94 1013.9
20260507022052 45 327 3.0 3.0 0.00 0.34 0.34 94 1014.1
20260507021549 45 351 3.0 3.0 0.00 0.34 0.34 94 1014.0
20260507021045 45 341 3.0 3.0 0.00 0.34 0.34 94 1014.0
20260507020543 45 307 3.0 3.0 0.00 0.34 0.34 94 1014.3
20260507020034 45 307 3.0 3.0 0.00 0.34 0.34 94 1013.9
20260507015532 45 324 1.0 3.0 0.00 0.34 0.34 94 1014.0
20260507015029 45 319 2.0 3.0 0.00 0.34 0.34 94 1014.1
20260507014526 46 290 5.0 8.0 0.00 0.34 0.34 94 1014.1
20260507014022 46 313 3.0 3.0 0.00 0.34 0.34 94 1013.9
20260507013518 46 303 4.0 5.0 0.00 0.34 0.34 94 1014.0
20260507013016 46 280 3.0 6.0 0.00 0.34 0.34 94 1014.0
20260507012513 46 284 5.0 6.0 0.00 0.34 0.34 94 1014.1
20260507012009 46 291 5.0 6.0 0.00 0.34 0.34 94 1014.0
20260507011506 46 296 2.0 5.0 0.00 0.34 0.34 95 1014.1
20260507011002 46 265 6.0 7.0 0.00 0.34 0.34 95 1014.0
20260507010457 46 294 4.0 5.0 0.00 0.34 0.34 95 1013.6
20260507005954 46 302 3.0 3.0 0.00 0.34 0.34 95 1013.4
20260507005451 46 300 1.0 1.0 0.00 0.34 0.34 95 1013.3
20260507004947 46 304 4.0 5.0 0.00 0.34 0.34 95 1013.5
20260507004443 46 312 3.0 3.0 0.00 0.34 0.34 95 1013.3
20260507003941 46 264 4.0 6.0 0.00 0.34 0.34 95 1013.2
20260507003436 46 313 3.0 3.0 0.00 0.34 0.34 96 1013.1
20260507002931 46 296 4.0 7.0 0.00 0.34 0.34 96 1013.0
20260507002428 46 322 3.0 9.0 0.00 0.34 0.34 96 1013.3
20260507001925 46 285 4.0 10.0 0.00 0.34 0.34 96 1013.0
20260507001422 46 321 4.0 10.0 0.00 0.34 0.34 96 1013.1
20260507000920 46 305 7.0 11.0 0.00 0.34 0.34 96 1013.0
20260507000414 46 311 4.0 9.0 0.00 0.34 0.34 96 1013.0
20260506235910 46 303 5.0 9.0 0.00 0.34 0.34 96 1012.9
20260506235408 46 306 3.0 8.0 0.00 0.34 0.34 96 1012.8
20260506234903 46 294 6.0 8.0 0.00 0.34 0.34 96 1012.6
20260506234402 46 317 3.0 9.0 0.00 0.34 0.34 96 1012.5
20260506233859 46 276 7.0 13.0 0.00 0.34 0.34 96 1012.3
20260506233354 47 299 6.0 8.0 0.00 0.34 0.34 96 1012.3
20260506232852 47 274 7.0 13.0 0.00 0.34 0.34 96 1012.4
20260506232347 47 301 7.0 10.0 0.00 0.34 0.34 96 1012.1
20260506231839 47 319 11.0 13.0 0.00 0.34 0.34 96 1012.3
20260506231337 47 322 11.0 13.0 0.00 0.34 0.34 96 1012.1
20260506230834 47 276 9.0 10.0 0.00 0.34 0.34 96 1011.9
20260506230331 47 238 8.0 9.0 0.00 0.34 0.34 96 1011.9
20260506225827 47 305 7.0 8.0 0.00 0.34 0.34 96 1011.9
20260506225324 47 299 7.0 13.0 0.00 0.34 0.34 96 1011.8
20260506224821 47 307 7.0 9.0 0.00 0.34 0.34 96 1011.9
20260506224319 47 293 6.0 10.0 0.00 0.34 0.34 96 1011.8
20260506223814 47 267 6.0 10.0 0.00 0.34 0.34 96 1011.7
20260506223309 47 0 7.0 14.0 0.00 0.34 0.34 96 1011.6
20260506222806 47 286 7.0 9.0 0.00 0.34 0.34 96 1012.0
20260506222305 48 250 6.0 10.0 0.05 0.34 0.34 96 1011.7
20260506221754 48 285 8.0 14.0 0.05 0.34 0.34 96 1011.6
20260506221252 48 290 9.0 13.0 0.00 0.33 0.33 96 1011.6
20260506220749 48 333 11.0 13.0 0.00 0.33 0.33 96 1011.4
20260506220244 48 298 5.0 10.0 0.00 0.33 0.33 96 1011.4
20260506215741 48 294 5.0 10.0 0.00 0.33 0.33 96 1011.2
20260506215236 47 308 5.0 10.0 0.00 0.33 0.33 97 1011.1
20260506214733 47 278 3.0 8.0 0.00 0.33 0.33 97 1011.0
20260506214230 47 318 4.0 9.0 0.00 0.33 0.33 97 1011.0
20260506213728 47 300 6.0 9.0 0.00 0.33 0.33 97 1010.8
20260506213225 47 311 11.0 13.0 0.00 0.33 0.33 97 1010.7
20260506212723 47 295 8.0 9.0 0.00 0.33 0.33 97 1010.5
20260506212218 47 307 8.0 10.0 0.00 0.33 0.33 97 1010.5
20260506211713 47 315 5.0 8.0 0.00 0.33 0.33 97 1010.4
20260506211210 47 297 3.0 11.0 0.07 0.33 0.33 97 1010.3
20260506210707 47 284 5.0 11.0 0.07 0.33 0.33 97 1010.3
20260506210204 47 298 5.0 7.0 0.00 0.32 0.32 97 1010.1
20260506205702 47 277 4.0 7.0 0.00 0.32 0.32 97 1010.3
20260506205201 47 301 5.0 9.0 0.00 0.32 0.32 97 1010.4
20260506204659 47 318 6.0 13.0 0.00 0.32 0.32 97 1010.3
20260506204156 47 313 5.0 9.0 0.00 0.32 0.32 97 1010.3
20260506203654 47 327 7.0 10.0 0.00 0.32 0.32 97 1010.3
20260506203151 47 289 6.0 10.0 0.00 0.32 0.32 97 1010.1
20260506202649 47 288 6.0 13.0 0.00 0.32 0.32 97 1009.9
20260506202145 47 290 8.0 14.0 0.00 0.32 0.32 97 1009.8
20260506201642 47 305 8.0 11.0 0.05 0.32 0.32 97 1009.8
20260506201138 47 301 3.0 10.0 0.05 0.32 0.32 97 1009.8
20260506200635 47 301 7.0 8.0 0.00 0.31 0.31 97 1009.9
20260506200132 48 305 5.0 7.0 0.00 0.31 0.31 97 1009.8
20260506195628 48 313 9.0 11.0 0.00 0.31 0.31 97 1010.0
20260506195125 48 322 6.0 8.0 0.00 0.31 0.31 97 1010.0
20260506194622 48 282 5.0 8.0 0.00 0.31 0.31 97 1009.7
20260506194118 48 282 4.0 6.0 0.00 0.31 0.31 97 1009.7
20260506193616 48 270 5.0 7.0 0.00 0.31 0.31 97 1009.8
20260506193114 48 307 3.0 6.0 0.00 0.31 0.31 97 1009.5
20260506192610 48 282 3.0 6.0 0.00 0.31 0.31 97 1009.5
20260506192106 48 297 3.0 6.0 0.00 0.31 0.31 97 1009.5
20260506191603 48 286 4.0 9.0 0.00 0.31 0.31 97 1009.7
20260506191059 48 296 5.0 6.0 0.00 0.31 0.31 97 1009.6
20260506190556 48 329 7.0 8.0 0.00 0.31 0.31 97 1009.6
20260506190053 48 315 5.0 8.0 0.00 0.31 0.31 97 1009.5
20260506185550 48 293 7.0 8.0 0.00 0.31 0.31 97 1009.5
20260506185047 48 308 4.0 7.0 0.00 0.31 0.31 97 1009.4
20260506184544 48 297 8.0 9.0 0.00 0.31 0.31 97 1009.5
20260506184036 48 265 6.0 8.0 0.00 0.31 0.31 97 1009.6
20260506183532 48 311 6.0 8.0 0.00 0.31 0.31 97 1009.4
20260506183029 49 302 6.0 8.0 0.00 0.31 0.31 97 1009.6
20260506182526 49 317 3.0 5.0 0.00 0.31 0.31 97 1009.4
20260506182023 49 299 4.0 6.0 0.00 0.31 0.31 97 1009.4
20260506181521 49 316 5.0 6.0 0.00 0.31 0.31 97 1009.3
20260506181018 48 308 5.0 7.0 0.00 0.31 0.31 97 1009.2
20260506180514 48 305 3.0 6.0 0.00 0.31 0.31 97 1009.2
20260506180011 48 330 3.0 7.0 0.07 0.31 0.31 97 1009.2
20260506175508 48 317 2.0 3.0 0.07 0.31 0.31 97 1009.3
20260506175004 48 9 3.0 8.0 0.00 0.30 0.30 97 1009.4
20260506174502 48 3 5.0 6.0 0.00 0.30 0.30 97 1009.4
20260506173957 48 335 3.0 8.0 0.00 0.30 0.30 97 1009.5
20260506173455 48 290 5.0 8.0 0.00 0.30 0.30 97 1009.5
20260506172947 48 319 5.0 8.0 0.05 0.30 0.30 97 1009.2
20260506172444 48 327 5.0 8.0 0.05 0.30 0.30 97 1009.3
20260506171940 48 313 10.0 10.0 0.00 0.29 0.29 97 1009.4
20260506171438 48 298 9.0 11.0 0.07 0.29 0.29 97 1009.3
20260506170936 48 310 9.0 9.0 0.07 0.29 0.29 97 1009.6
20260506170431 49 345 6.0 9.0 0.05 0.28 0.28 97 1009.3
20260506165924 50 296 5.0 6.0 0.05 0.28 0.28 97 1009.6
20260506165422 51 33 3.0 6.0 0.07 0.27 0.27 97 1009.3
20260506164913 53 323 5.0 7.0 0.07 0.27 0.27 97 1009.4
20260506164409 53 338 3.0 6.0 0.05 0.26 0.26 97 1009.5
20260506163907 54 12 1.0 3.0 0.12 0.26 0.26 98 1009.2
20260506163401 54 338 3.0 5.0 0.19 0.25 0.25 97 1009.2
20260506162856 54 304 3.0 5.0 0.14 0.23 0.23 97 1009.5
20260506162355 54 320 3.0 5.0 0.07 0.22 0.22 97 1009.3
20260506161852 54 300 4.0 5.0 0.05 0.21 0.21 97 1009.5
20260506161350 54 323 0.0 1.0 0.05 0.21 0.21 97 1009.4
20260506160847 54 311 0.0 1.0 0.07 0.20 0.20 97 1009.2
20260506160344 54 324 0.0 0.0 0.07 0.20 0.20 97 1009.5
20260506155843 54 22 0.0 0.0 0.05 0.19 0.19 97 1009.3
20260506155339 53 351 0.0 2.0 0.07 0.18 0.18 97 1009.1
20260506153456 53 45 1.0 1.0 0.00 0.17 0.17 97 1009.6
20260506152953 53 40 1.0 1.0 0.00 0.17 0.17 97 1009.4
20260506152450 53 44 0.0 2.0 0.00 0.17 0.17 97 1009.1
20260506151948 53 8 2.0 3.0 0.00 0.17 0.17 97 1009.5
20260506151445 53 52 0.0 2.0 0.00 0.17 0.17 97 1009.5
20260506150943 53 69 0.0 5.0 0.05 0.17 0.17 97 1009.4
20260506150438 53 34 0.0 3.0 0.00 0.16 0.16 97 1009.7
20260506145936 53 112 2.0 3.0 0.00 0.16 0.16 97 1009.5
20260506145432 52 129 2.0 5.0 0.07 0.16 0.16 97 1009.5
20260506144930 52 27 1.0 2.0 0.12 0.16 0.16 97 1009.6
20260506144426 52 26 1.0 2.0 0.05 0.15 0.15 97 1009.7
20260506143925 52 346 0.0 1.0 0.07 0.14 0.14 97 1009.7
20260506143421 52 42 1.0 3.0 0.07 0.14 0.14 97 1009.6
20260506142920 52 71 3.0 5.0 0.00 0.13 0.13 97 1010.0
20260506142417 52 49 2.0 2.0 0.05 0.13 0.13 97 1009.8
20260506141915 52 76 2.0 2.0 0.12 0.13 0.13 97 1010.1
20260506141413 51 115 3.0 5.0 0.14 0.12 0.12 97 1010.2
20260506140911 51 97 3.0 3.0 0.07 0.11 0.11 97 1010.4
20260506140408 51 122 2.0 3.0 0.05 0.10 0.10 97 1010.4
20260506135905 51 112 1.0 3.0 0.07 0.09 0.09 97 1010.5
20260506135401 51 80 1.0 2.0 0.07 0.09 0.09 97 1010.5
20260506134858 51 102 0.0 0.0 0.00 0.08 0.08 97 1010.7
20260506134354 51 100 2.0 2.0 0.00 0.08 0.08 97 1010.5
20260506133851 51 100 1.0 2.0 0.00 0.08 0.08 97 1010.4
20260506133348 51 81 0.0 0.0 0.05 0.08 0.08 97 1010.4
20260506132844 51 139 2.0 3.0 0.05 0.08 0.08 96 1010.1
20260506132341 51 72 3.0 3.0 0.00 0.07 0.07 96 1010.0
20260506131840 51 100 1.0 3.0 0.00 0.07 0.07 96 1010.3
20260506131335 51 76 2.0 3.0 0.00 0.07 0.07 96 1010.1
20260506130833 51 112 2.0 3.0 0.00 0.07 0.07 96 1010.2
20260506130329 51 80 3.0 3.0 0.00 0.07 0.07 96 1010.2
20260506125827 51 89 2.0 5.0 0.00 0.07 0.07 96 1010.4
20260506125325 51 149 3.0 3.0 0.00 0.07 0.07 96 1010.3
20260506124824 51 109 2.0 2.0 0.00 0.07 0.07 96 1010.5
20260506124320 51 125 1.0 2.0 0.00 0.07 0.07 96 1010.3
20260506123818 51 99 2.0 2.0 0.00 0.07 0.07 96 1010.6
20260506123316 50 41 0.0 0.0 0.00 0.07 0.07 96 1010.6
20260506122813 50 11 0.0 0.0 0.00 0.07 0.07 96 1010.5
20260506122310 50 33 0.0 0.0 0.00 0.07 0.07 96 1010.5
20260506121808 50 56 1.0 1.0 0.00 0.07 0.07 96 1010.5
20260506121305 50 12 0.0 0.0 0.00 0.07 0.07 96 1010.5
20260506120802 50 12 0.0 0.0 0.00 0.07 0.07 96 1010.7